THOR ABLESTAR DEB, 652

Orbit data source: Space-Track

THOR ABLESTAR DEB, 652 is space debris in LEO originally from a launch on Thu, 29 Jun 1961 UTC launched from the Air Force Eastern Test Range (AFETR). Debris objects in space refer to the collection of defunct objects orbiting the Earth. Examples of debris include non-operational satellites, rocket bodies, and fragments generated from explosions, collisions, or faulty payload assembly.

Loading next visibility...
Identifier
652, 1961-015HD
Orbit
LEO
Country
Flag of USUS
Related business
Manufacturer
Unknown
Mission
Spacecraft
Bus & Motor
Unknown
Mass
Unknown
Launch date (UTC)
1961-06-29 (65 years ago)
Launch vehicle
Unknown
Launch site
Air Force Eastern Test Range (AFETR)
Object type
Payload
Rocket body
Debris
Shape & HBR
Unknown shape, 0.1 m
Radar Cross Section
Small (<0.1 m²)

Expand to show TLE details & history
Last TLE update: 11 hours ago

TLE from 11 hours ago
0 THOR ABLESTAR DEB
1   652U 61015HD  26167.92268545  .00001744  00000-0  85694-3 0  9990
2   652  66.7043 107.2662 0071595 351.1188   8.8632 14.18705085293829
Epoch: 2026-06-16T22:08Z
TLE epoch observation values (Epoch: 2026-06-16T22:08:40.022Z)
Latitude
-0.00003°
Longitude
-130.08833°
Altitude
780.846 km
Speed
7.49 km/s
True Right ascension
07h 09m 03s
True Declination
0° 00' 00"
Sunlit
Object was in daylight at epoch
Visualization orbit readout
Latitude
Unknown
Longitude
Unknown
Altitude
Unknown
Speed
Unknown
Apparent Right ascension
Unknown
Apparent Declination
Unknown
Sunlit
N/A
Visualization observer readout
Local Sidereal Time
19:25:24
Azimuth
Unknown
Elevation
Unknown
Doppler factor
Unknown
Orbital elements
Apogee altitude
879.712 km
Perigee altitude
776.525 km
Semi-major axis
7,206.255 km
Eccentricity
0.00716
Inclination
66.7043°
RAAN
107.2662°
Arg. of periapsis
351.1188°
True anomaly
8.99073°
Mean anomaly
8.8632°
Eccentric anomaly
8.92685°
Mean motion
3.54796 °/min
Orbital period
101.47 mins
BSTAR
0.00085694

Documentation

Showing up to 5 results
|